| time (UTC) | temp F | wind direction | speed MPH | gust MPH | rain 1hr in | rain 24hr in | rain mn in | humidity % | barometer mb |
| 20260504230003 | 46 | 344 | 4.0 | 7.0 | 0.00 | 0.00 | 0.00 | 88 | 1016.2 |
| 20260504225003 | 46 | 343 | 4.0 | 6.0 | 0.00 | 0.00 | 0.00 | 92 | 1016.2 |
| 20260504224008 | 46 | 343 | 4.0 | 8.0 | 0.00 | 0.00 | 0.00 | 92 | 1016.2 |
| 20260504223222 | 46 | 339 | 3.0 | 7.0 | 0.00 | 0.00 | 0.00 | 94 | 1016.3 |
| 20260504222008 | 46 | 337 | 3.0 | 6.0 | 0.00 | 0.00 | 0.00 | 96 | 1016.2 |
| 20260504221003 | 46 | 336 | 3.0 | 6.0 | 0.00 | 0.00 | 0.00 | 97 | 1016.3 |
| 20260504220008 | 46 | 337 | 3.0 | 7.0 | 0.00 | 0.00 | 0.00 | 97 | 1016.4 |
| 20260504215008 | 46 | 343 | 4.0 | 7.0 | 0.00 | 0.00 | 0.00 | 98 | 1016.6 |
| 20260504214003 | 46 | 341 | 4.0 | 8.0 | 0.00 | 0.00 | 0.00 | 97 | 1016.5 |
| 20260504213222 | 45 | 340 | 3.0 | 5.0 | 0.00 | 0.00 | 0.00 | 96 | 1016.6 |
| 20260504212008 | 45 | 338 | 2.0 | 4.0 | 0.00 | 0.00 | 0.00 | 95 | 1016.6 |
| 20260504211008 | 45 | 340 | 2.0 | 3.0 | 0.00 | 0.00 | 0.00 | 94 | 1016.3 |
| 20260504210008 | 45 | 344 | 2.0 | 3.0 | 0.00 | 0.00 | 0.00 | 94 | 1016.3 |
| 20260504205013 | 46 | 342 | 2.0 | 3.0 | 0.00 | 0.00 | 0.00 | 93 | 1016.5 |
| 20260504204008 | 46 | 332 | 3.0 | 5.0 | 0.00 | 0.00 | 0.00 | 93 | 1016.1 |
| 20260504203003 | 46 | 335 | 2.0 | 4.0 | 0.00 | 0.00 | 0.00 | 92 | 1016.2 |
| 20260504202008 | 47 | 331 | 3.0 | 4.0 | 0.00 | 0.00 | 0.00 | 91 | 1016.0 |
| 20260504201003 | 47 | 331 | 2.0 | 5.0 | 0.00 | 0.00 | 0.00 | 90 | 1016.0 |
| 20260504200229 | 48 | 323 | 3.0 | 4.0 | 0.00 | 0.00 | 0.00 | 90 | 1015.8 |
| 20260504195013 | 49 | 320 | 3.0 | 5.0 | 0.00 | 0.00 | 0.00 | 88 | 1016.0 |
| 20260504194008 | 49 | 328 | 3.0 | 5.0 | 0.00 | 0.00 | 0.00 | 86 | 1015.7 |
| 20260504193009 | 50 | 326 | 3.0 | 5.0 | 0.00 | 0.00 | 0.00 | 84 | 1015.7 |
| 20260504192013 | 51 | 325 | 3.0 | 5.0 | 0.00 | 0.00 | 0.00 | 82 | 1015.8 |
| 20260504191004 | 51 | 317 | 3.0 | 5.0 | 0.00 | 0.00 | 0.00 | 82 | 1015.6 |
| 20260504190217 | 52 | 320 | 4.0 | 7.0 | 0.00 | 0.00 | 0.00 | 80 | 1015.8 |
| 20260504185008 | 54 | 321 | 5.0 | 7.0 | 0.00 | 0.00 | 0.00 | 76 | 1015.7 |
| 20260504184008 | 55 | 322 | 4.0 | 7.0 | 0.00 | 0.00 | 0.00 | 75 | 1015.5 |
| 20260504183009 | 55 | 318 | 4.0 | 8.0 | 0.00 | 0.00 | 0.00 | 74 | 1015.3 |
| 20260504182004 | 56 | 315 | 5.0 | 9.0 | 0.00 | 0.00 | 0.00 | 73 | 1015.6 |
| 20260504181004 | 57 | 317 | 5.0 | 8.0 | 0.00 | 0.00 | 0.00 | 71 | 1015.2 |
| 20260504180008 | 57 | 313 | 5.0 | 8.0 | 0.00 | 0.00 | 0.00 | 72 | 1015.3 |
| 20260504175223 | 57 | 316 | 4.0 | 8.0 | 0.00 | 0.00 | 0.00 | 71 | 1015.2 |
| 20260504174008 | 57 | 319 | 4.0 | 8.0 | 0.00 | 0.00 | 0.00 | 74 | 1015.1 |
| 20260504173008 | 54 | 320 | 4.0 | 7.0 | 0.00 | 0.00 | 0.00 | 79 | 1015.3 |
| 20260504172008 | 55 | 318 | 5.0 | 9.0 | 0.00 | 0.00 | 0.00 | 76 | 1015.3 |
| 20260504171003 | 57 | 320 | 5.0 | 8.0 | 0.00 | 0.00 | 0.00 | 76 | 1015.1 |
| 20260504170222 | 56 | 323 | 5.0 | 8.0 | 0.00 | 0.00 | 0.00 | 79 | 1015.3 |
| 20260504141008 | 59 | 318 | 5.0 | 8.0 | 0.00 | 0.00 | 0.00 | 70 | 1015.8 |
| 20260504140217 | 58 | 314 | 4.0 | 7.0 | 0.00 | 0.00 | 0.00 | 70 | 1015.8 |
| 20260504110222 | 51 | 321 | 4.0 | 7.0 | 0.00 | 0.00 | 0.00 | 88 | 1016.0 |
| 20260504082008 | 49 | 326 | 3.0 | 6.0 | 0.00 | 0.00 | 0.00 | 94 | 1015.2 |
| 20260504081003 | 48 | 308 | 3.0 | 6.0 | 0.00 | 0.00 | 0.00 | 96 | 1015.0 |
| 20260504050008 | 47 | 339 | 6.0 | 15.0 | 0.00 | 0.00 | 0.00 | 98 | 1013.5 |
| 20260504045003 | 47 | 335 | 4.0 | 11.0 | 0.00 | 0.00 | 0.00 | 98 | 1013.5 |
| 20260504044003 | 47 | 303 | 4.0 | 11.0 | 0.00 | 0.00 | 0.00 | 98 | 1013.4 |
| 20260504043003 | 47 | 311 | 3.0 | 11.0 | 0.00 | 0.00 | 0.00 | 98 | 1013.3 |
| 20260504042218 | 47 | 315 | 4.0 | 11.0 | 0.00 | 0.00 | 0.00 | 98 | 1013.3 |
| 20260504041222 | 47 | 290 | 2.0 | 5.0 | 0.00 | 0.00 | 0.00 | 98 | 1013.3 |
| 20260504040008 | 47 | 306 | 2.0 | 5.0 | 0.00 | 0.00 | 0.00 | 98 | 1013.4 |
| 20260504035217 | 47 | 324 | 3.0 | 6.0 | 0.00 | 0.00 | 0.00 | 97 | 1013.4 |
| 20260504034008 | 47 | 323 | 3.0 | 5.0 | 0.00 | 0.00 | 0.00 | 97 | 1013.3 |
| 20260504033008 | 47 | 323 | 3.0 | 5.0 | 0.00 | 0.00 | 0.00 | 97 | 1013.3 |
| 20260504032003 | 47 | 318 | 2.0 | 6.0 | 0.00 | 0.00 | 0.00 | 97 | 1013.4 |
| 20260504031217 | 47 | 317 | 3.0 | 6.0 | 0.00 | 0.00 | 0.00 | 97 | 1013.4 |
| 20260504030003 | 47 | 326 | 3.0 | 7.0 | 0.00 | 0.00 | 0.00 | 98 | 1013.2 |
| 20260504025003 | 48 | 321 | 3.0 | 6.0 | 0.00 | 0.00 | 0.00 | 98 | 1013.2 |
| 20260504024003 | 48 | 321 | 3.0 | 6.0 | 0.00 | 0.00 | 0.00 | 98 | 1013.1 |
| 20260504023003 | 48 | 325 | 3.0 | 6.0 | 0.00 | 0.00 | 0.00 | 98 | 1013.0 |
| 20260504022003 | 48 | 321 | 3.0 | 7.0 | 0.00 | 0.00 | 0.00 | 98 | 1013.0 |
| 20260504021008 | 48 | 321 | 3.0 | 7.0 | 0.00 | 0.00 | 0.00 | 98 | 1012.9 |
| 20260504020003 | 48 | 322 | 3.0 | 6.0 | 0.00 | 0.00 | 0.00 | 98 | 1012.9 |
| 20260504015003 | 48 | 324 | 3.0 | 5.0 | 0.00 | 0.00 | 0.00 | 98 | 1012.6 |
| 20260504014003 | 48 | 326 | 3.0 | 7.0 | 0.00 | 0.00 | 0.00 | 98 | 1012.9 |
| 20260504013003 | 48 | 324 | 3.0 | 7.0 | 0.00 | 0.00 | 0.00 | 98 | 1012.8 |
| 20260504012003 | 48 | 325 | 2.0 | 7.0 | 0.00 | 0.00 | 0.00 | 98 | 1013.0 |
| 20260504011003 | 48 | 323 | 3.0 | 7.0 | 0.00 | 0.00 | 0.00 | 98 | 1013.0 |
| 20260504010008 | 48 | 327 | 2.0 | 5.0 | 0.00 | 0.00 | 0.00 | 98 | 1013.0 |
| 20260504005008 | 48 | 319 | 3.0 | 6.0 | 0.00 | 0.00 | 0.00 | 98 | 1013.0 |
| 20260504004008 | 49 | 329 | 3.0 | 7.0 | 0.00 | 0.00 | 0.00 | 98 | 1013.0 |
| 20260504003008 | 49 | 324 | 3.0 | 6.0 | 0.00 | 0.00 | 0.00 | 98 | 1012.8 |
| 20260504002008 | 49 | 321 | 3.0 | 5.0 | 0.00 | 0.00 | 0.00 | 97 | 1012.7 |
| 20260504001003 | 49 | 325 | 3.0 | 7.0 | 0.00 | 0.00 | 0.00 | 97 | 1012.8 |
| 20260504000003 | 49 | 322 | 3.0 | 6.0 | 0.00 | 0.01 | 0.00 | 97 | 1012.7 |
| 20260503235003 | 49 | 322 | 3.0 | 5.0 | 0.00 | 0.01 | 0.00 | 97 | 1012.6 |
| 20260503234008 | 49 | 318 | 2.0 | 6.0 | 0.00 | 0.01 | 0.00 | 97 | 1012.6 |
| 20260503233003 | 49 | 322 | 3.0 | 6.0 | 0.00 | 0.01 | 0.00 | 97 | 1012.6 |
| 20260503232008 | 49 | 322 | 3.0 | 5.0 | 0.00 | 0.01 | 0.00 | 97 | 1012.5 |
| 20260503231008 | 49 | 312 | 3.0 | 5.0 | 0.00 | 0.01 | 0.00 | 97 | 1012.5 |